This is the latest recevied weather packets stored in our database for station/object CE3PA-5. If no packets are shown the sender has not sent any weather packets the latest 1 day(s).
| Time | Temp. | Humidity | Pressure | Rain* | Wind** | Luminosity | Snow |
|---|---|---|---|---|---|---|---|
| 1777917353 | 20° C | 17% | 755.6 hPa | - | - | - | - |
| 1777915555 | 22.22° C | 16% | 755.8 hPa | - | - | - | - |
| 1777914656 | 22.78° C | 16% | 755.8 hPa | - | - | - | - |
| 1777912855 | 20.56° C | 16% | 756 hPa | - | - | - | - |
| 1777911955 | 19.44° C | 16% | 756.1 hPa | - | - | - | - |
| 1777907454 | 17.22° C | 17% | 756.2 hPa | - | - | - | - |
| 1777905654 | 14.44° C | 18% | 756.3 hPa | - | - | - | - |
| 1777902953 | 11.67° C | 19% | 756.2 hPa | - | - | - | - |
| 1777901152 | 10.56° C | 19% | 756.1 hPa | - | - | - | - |
| 1777899353 | 10° C | 20% | 756.1 hPa | - | - | - | - |
| 1777898453 | 9.44° C | 20% | 756.1 hPa | - | - | - | - |
| 1777897552 | 9.44° C | 20% | 756.1 hPa | - | - | - | - |
| 1777895752 | 9.44° C | 20% | 756 hPa | - | - | - | - |
| 1777894864 | 9.44° C | 20% | 755.9 hPa | - | - | - | - |
| 1777893065 | 9.44° C | 20% | 755.7 hPa | - | - | - | - |
| 1777892163 | 9.44° C | 20% | 755.8 hPa | - | - | - | - |
| 1777890364 | 9.44° C | 20% | 755.7 hPa | - | - | - | - |
| 1777888563 | 8.89° C | 20% | 755.6 hPa | - | - | - | - |
| 1777886763 | 8.89° C | 20% | 755.7 hPa | - | - | - | - |
| 1777885862 | 8.89° C | 20% | 755.6 hPa | - | - | - | - |
| 1777884962 | 8.89° C | 20% | 755.5 hPa | - | - | - | - |
| 1777883163 | 8.89° C | 20% | 755.5 hPa | - | - | - | - |
| 1777882262 | 8.89° C | 20% | 755.7 hPa | - | - | - | - |
| 1777881361 | 8.89° C | 20% | 755.7 hPa | - | - | - | - |
| 1777880461 | 8.89° C | 20% | 755.7 hPa | - | - | - | - |
* Rain since midnight (hover to see other rain measurements)
** Current wind speed in m/s (hover to see current wind gust speed)